Location: ?????????
(48.8007°N, 34.3657°E)
Time: 10:23:48
(UTC+00:00)

Daily predictions for brighter satellites

Satellite Brightness Start Highest point End
(mag) Time Altitude Azimuth Time Altitude Azimuth Time Altitude Azimuth
CZ-4C R/B 3.8 16:32:17 10° W 16:37:15 36° NNW 16:43:09 10° NE
STARLINK-1130 (DARKSAT) 4.3 16:35:23 10° WNW 16:39:26 48° N 16:43:28 10° E
STARLINK-1082 3.6 16:35:58 10° WNW 16:40:02 83° NNE 16:44:04 10° ESE
Cosmos 1709 Rocket 4.4 16:34:20 10° N 16:40:14 42° ENE 16:46:02 10° SE
STARLINK-1227 3.4 16:37:18 10° SW 16:40:15 39° SE 16:43:13 10° ENE
STARLINK-1240 4.4 16:36:57 10° SSW 16:40:31 31° SE 16:44:05 10° ENE
STARLINK-1218 3.4 16:37:46 10° SW 16:40:42 40° SE 16:43:40 10° ENE
STARLINK-1226 3.4 16:38:14 10° SW 16:41:11 40° SE 16:44:09 10° ENE
USA 81 4.1 16:36:16 10° N 16:41:31 63° E 16:46:44 10° SSE
Resurs 01 Rocket 3.4 16:38:58 10° E 16:41:32 15° ENE 16:44:06 10° NNE
STARLINK-1254 3.4 16:38:37 10° SW 16:41:35 40° SE 16:44:34 10° ENE
Cosmos 494 Rocket 4.2 16:37:03 10° S 16:41:56 46° ESE 16:46:54 10° NNE
STARLINK-1215 3.4 16:39:07 10° SW 16:42:04 41° SE 16:45:02 10° ENE
Cosmos 371 Rocket 3.9 16:37:35 10° NNW 16:42:22 63° WSW 16:47:08 10° S
STARLINK-1231 3.4 16:39:33 10° SW 16:42:30 41° SE 16:45:29 10° ENE
STARLINK-1232 3.3 16:40:27 10° SW 16:43:25 42° SE 16:46:24 10° ENE
Cosmos 1939 Rocket 4.2 16:39:54 10° S 16:43:43 44° W 16:47:30 10° NNW
STARLINK-1217 3.3 16:40:54 10° SW 16:43:52 42° SE 16:46:51 10° ENE
STARLINK-1208 3.3 16:41:19 10° SW 16:44:18 42° SE 16:47:18 10° ENE
STARLINK-1084 4.2 16:40:22 10° WNW 16:44:25 49° N 16:48:28 10° E
STARLINK-1100 3.6 16:40:32 10° WNW 16:44:35 87° NNE 16:48:37 10° ESE
STARLINK-1229 3.3 16:41:47 10° SW 16:44:45 43° SE 16:47:44 10° ENE
STARLINK-1216 4.3 16:41:28 10° SSW 16:45:06 33° SE 16:48:44 10° ENE
STARLINK-1271 3.3 16:42:15 10° SW 16:45:13 43° SSE 16:48:13 10° ENE
STARLINK-1270 3.3 16:42:42 10° SW 16:45:40 43° SSE 16:48:39 10° ENE
SPOT 3 Rocket 4.4 16:41:14 10° SE 16:45:49 32° ENE 16:50:24 10° N
STARLINK-1154 3.3 16:43:07 10° SW 16:46:06 44° SSE 16:49:06 10° ENE
Cosmos 1331 Rocket 4.0 16:41:02 10° NNW 16:46:14 71° ENE 16:51:22 10° SSE
STARLINK-1197 3.3 16:44:01 10° SW 16:47:00 44° SSE 16:50:00 10° ENE
Cosmos 2219 Rocket 3.4 16:41:48 10° SW 16:47:14 46° NW 16:52:41 10° NNE
STARLINK-1189 3.2 16:44:28 10° SW 16:47:28 45° SSE 16:50:28 10° ENE
Cosmos 1733 3.5 16:44:27 10° SSE 16:48:02 44° E 16:51:39 10° NNE
STARLINK-1187 3.1 16:45:15 10° SW 16:48:18 51° SSE 16:51:22 10° ENE
STARLINK-1188 3.2 16:45:21 10° SW 16:48:21 45° SSE 16:51:22 10° ENE
STARLINK-1198 3.2 16:45:37 10° SW 16:48:37 46° SSE 16:51:38 10° ENE
STARLINK-1235 3.0 16:45:53 10° SW 16:48:59 58° SSE 16:52:05 10° ENE
STARLINK-1083 3.6 16:45:07 10° WNW 16:49:10 89° SSW 16:53:13 10° ESE
STARLINK-1098 4.2 16:45:22 10° WNW 16:49:25 50° N 16:53:28 10° E
STARLINK-1237 4.2 16:46:02 10° SSW 16:49:43 36° SE 16:53:25 10° ENE
STARLINK-1199 3.2 16:47:17 10° SW 16:50:18 47° SSE 16:53:21 10° ENE
STARLINK-1191 3.2 16:47:44 10° SW 16:50:45 48° SSE 16:53:48 10° ENE
STARLINK-1210 3.2 16:48:10 10° SW 16:51:12 48° SSE 16:54:15 10° ENE
STARLINK-1221 3.2 16:48:38 10° SW 16:51:40 49° SSE 16:54:44 10° ENE
STARLINK-1219 3.1 16:49:04 10° SW 16:52:06 49° SSE 16:55:10 10° ENE
STARLINK-1222 3.1 16:49:31 10° SW 16:52:32 49° SSE 16:55:37 10° ENE
Cosmos 1674 3.0 16:49:09 10° NNW 16:52:55 69° W 16:56:37 10° S
STARLINK-1211 3.1 16:49:58 10° SW 16:53:00 50° SSE 16:56:04 10° ENE
STARLINK-1214 3.1 16:50:25 10° SW 16:53:28 50° SSE 16:56:32 10° ENE
STARLINK-1125 3.6 16:49:43 10° WNW 16:53:46 85° SSW 16:57:41 11° ESE
STARLINK-1245 3.1 16:50:54 10° SW 16:53:56 50° SSE 16:56:59 10° ENE
FREGAT/IRIS 2.6 16:51:24 10° SSE 16:54:02 45° ENE 16:56:40 10° N
SL-14 R/B 3.7 16:50:10 10° N 16:54:06 45° ENE 16:57:59 10° SSE
STARLINK-67 2.3 16:51:40 10° WSW 16:54:15 87° SSE 16:56:50 10° ENE
STARLINK-1202 4.1 16:50:33 10° SSW 16:54:17 38° SE 16:58:03 10° ENE
STARLINK-1238 3.1 16:51:19 10° SW 16:54:23 51° SSE 16:57:26 10° ENE
STARLINK-1123 4.2 16:50:23 10° WNW 16:54:26 51° N 16:58:25 10° E
Cosmos 1943 Rocket 3.1 16:50:14 10° NNW 16:55:08 31° NE 16:59:46 11° ESE
STARLINK-1205 3.1 16:52:15 10° SW 16:55:17 52° SSE 16:58:20 10° ENE
STARLINK-1204 3.1 16:52:41 10° SW 16:55:43 52° SSE 16:58:46 10° ENE
KORONAS-FOTON 4.1 16:51:58 10° NNW 16:55:47 70° W 16:59:34 10° S
S3M 4.0 16:49:30 10° S 16:55:52 79° E 17:02:17 10° NNE
Cosmos 1980 3.8 16:50:51 10° SSW 16:56:32 86° WNW 17:02:17 10° NNE
STARLINK-1109 3.6 16:53:59 10° WNW 16:58:03 81° SSW 17:01:48 12° ESE
Cosmos 1386 Rocket 4.4 16:52:31 10° N 16:58:38 88° E 17:04:38 10° S
STARLINK-1246 4.0 16:55:18 10° SW 16:59:07 41° SE 17:02:58 10° ENE
STARLINK-1097 4.1 16:55:21 10° WNW 16:59:25 53° NNE 17:03:11 12° E
SL-08 ROCKET BODY 4.5 16:53:27 10° N 16:59:39 88° E 17:05:42 10° S
Ariane Rocket 3.0 16:56:54 10° SSE 17:01:59 89° E 17:07:06 10° NNW
STARLINK-1091 3.6 16:58:39 10° WNW 17:02:42 77° SSW 17:06:16 13° ESE
Cosmos 1766 3.4 16:59:19 10° S 17:03:19 85° W 17:07:20 10° N
STARLINK-1099 4.1 17:00:21 10° WNW 17:04:25 54° NNE 17:07:59 13° E
MONITOR-E 3.7 17:03:44 10° SSE 17:06:21 66° ENE 17:09:00 10° N
Cosmos 2084 4.4 17:01:59 10° WSW 17:06:22 53° NW 17:10:47 10° NE
Cosmos 1110 Rocket 4.3 17:01:45 10° NNW 17:07:01 73° WSW 17:12:12 10° SSE
STARLINK-1224 3.8 17:04:17 10° SW 17:08:09 47° SE 17:12:03 10° ENE
Cosmos 1455 Rocket 2.9 17:04:12 10° S 17:08:31 74° E 17:12:54 10° NNE
STARLINK-1104 4.0 17:05:20 10° WNW 17:09:26 56° NNE 17:12:46 15° E
SL-16 R/B 2.4 17:04:38 10° S 17:10:01 47° ESE 17:15:25 10° NE
Cosmos 2333 Rocket 4.1 17:05:27 10° WSW 17:10:33 33° NW 17:15:39 10° NNE
NOSS 2-1 (E) 4.1 17:07:39 10° WSW 17:10:58 48° NW 17:14:46 10° NE
STARLINK-1225 3.7 17:08:55 10° SW 17:12:50 51° SE 17:16:34 11° ENE
Cosmos 1892 Rocket 4.2 17:09:16 10° NNW 17:13:41 59° W 17:18:05 10° S
STARLINK-1144 4.0 17:10:18 10° WNW 17:14:24 58° NNE 17:17:32 16° E
STARLINK-1203 3.6 17:11:14 10° SW 17:15:06 55° SSE 17:18:41 12° ENE
Cosmos 1626 Rocket 3.7 17:11:03 10° N 17:15:23 53° ENE 17:19:40 10° SSE
STARLINK-1072 3.8 17:12:03 10° WNW 17:16:01 63° SSW 17:19:02 16° SE
ARGOS Delta rocket 4.3 17:11:01 10° S 17:16:06 75° W 17:21:30 10° NNW
ATLAS 2AS CENTAUR R/B 4.0 17:09:38 10° NW 17:16:35 33° NNE 17:22:49 11° E
STARLINK-1230 3.7 17:13:30 10° SW 17:17:27 54° SSE 17:21:00 12° ENE
BREEZE-M DEB (TANK) 3.2 17:11:50 10° SW 17:17:27 33° SSE 17:19:00 20° ESE
Cosmos 2084 Rocket 4.3 17:15:08 10° NNW 17:19:21 39° NE 17:22:14 18° E
STARLINK-1103 3.9 17:15:17 10° WNW 17:19:23 60° NNE 17:22:19 18° E
Aureole 3 4.4 17:16:25 11° SE 17:19:45 30° E 17:24:07 10° NNE
Cosmos 1953 3.5 17:18:18 17° ESE 17:19:59 23° E 17:23:08 10° NE
STARLINK-1096 3.9 17:16:30 10° WNW 17:20:27 60° SSW 17:23:19 18° SE
Cosmos 1626 2.0 17:17:12 10° N 17:20:55 86° E 17:24:36 10° S
Okean 1-7 Rocket 4.3 17:16:59 10° NNW 17:21:20 57° W 17:25:37 10° S
STARLINK-1243 3.6 17:18:09 10° SW 17:22:07 58° SSE 17:25:31 14° ENE
USA 186 2.2 17:19:19 10° S 17:22:44 69° W 17:26:08 10° NNW
Cosmos 1602 Rocket 3.8 17:18:32 10° N 17:22:55 50° ENE 17:26:43 13° SSE
STARLINK-1101 3.9 17:20:17 10° WNW 17:24:24 62° NNE 17:27:07 20° E
STARLINK-1234 2.8 17:21:40 10° WSW 17:24:39 78° NNW 17:26:52 17° ENE
STARLINK-1079 3.9 17:20:58 10° WNW 17:24:54 56° SSW 17:27:36 19° SE
H-2A R/B 2.4 17:20:37 10° S 17:25:55 71° WSW 17:31:08 10° NNW
Cosmos 883 Rocket 4.4 17:19:57 10° S 17:26:09 81° E 17:32:27 10° N
STARLINK-1236 3.5 17:22:47 10° SW 17:26:46 62° SSE 17:30:00 15° ENE
USA 234 3.3 17:21:04 10° ENE 17:27:29 55° SE 17:33:52 10° SW
STARLINK-1116 4.0 17:25:27 10° WNW 17:29:21 52° SSW 17:31:54 20° SE
STARLINK-1102 3.8 17:25:16 10° WNW 17:29:23 64° NNE 17:31:53 23° E
Cosmos 2297 3.9 17:27:27 10° NNW 17:33:08 74° WSW 17:38:47 10° SSE
STARLINK-1111 3.8 17:30:14 10° WNW 17:34:22 67° NNE 17:36:40 25° E
Cosmos 1544 Rocket 3.7 17:31:34 10° SSW 17:35:57 78° W 17:40:25 10° N
STARLINK-1269 3.5 17:32:08 10° SW 17:36:09 70° SSE 17:39:02 18° ENE
CZ-2C R/B 3.8 17:32:15 10° NNE 17:37:00 62° E 17:41:39 10° S
Aureole 2 Rocket 3.4 17:34:21 10° N 17:37:31 31° ENE 17:38:18 27° E
STARLINK-1094 4.2 17:34:26 10° WNW 17:38:17 46° SW 17:40:31 22° SSE
STARLINK-1073 3.7 17:35:13 10° WNW 17:39:22 70° NNE 17:41:27 28° E
Cosmos 2237 Rocket 3.3 17:35:01 10° SW 17:40:25 47° NW 17:45:53 10° NNE
ERBS 4.0 17:37:34 10° W 17:40:40 32° NNW 17:43:45 10° NE
STARLINK-1200 3.4 17:36:48 10° SW 17:40:50 75° SSE 17:43:32 20° ENE
Cosmos 1825 Rocket 4.4 17:38:14 10° N 17:42:16 33° ENE 17:43:32 28° ESE
STARLINK-1117 4.3 17:38:57 10° WNW 17:42:46 43° SW 17:44:51 23° SSE
Cosmos 2184 Rocket 4.3 17:37:11 10° N 17:43:21 50° ENE 17:47:25 21° SE
STARLINK-1121 3.6 17:40:12 10° WNW 17:44:22 73° NNE 17:46:14 31° E
Cosmos 1302 Rocket 4.2 17:39:19 10° NNW 17:44:35 73° WSW 17:49:26 12° SSE
STARLINK-1192 3.4 17:41:25 10° WSW 17:45:28 79° SSE 17:48:00 22° ENE
CZ-2C R/B 2.8 17:40:48 10° NNE 17:45:48 46° E 17:50:44 10° S
STARLINK-1078 4.5 17:43:27 10° WNW 17:47:14 40° SW 17:49:10 24° SSE
Cosmos 1992 Rocket 4.2 17:42:44 10° NNW 17:47:51 53° ENE 17:50:23 28° SE
Cosmos 1269 Rocket 4.3 17:43:41 10° SSW 17:48:57 72° WNW 17:54:17 10° NNE
STARLINK-1106 3.6 17:45:10 10° WNW 17:49:19 77° NNE 17:51:00 35° ESE
STARLINK-1244 3.4 17:46:11 10° WSW 17:50:14 83° SSE 17:52:36 24° ENE
Cosmos 1758 Rocket 3.8 17:47:21 10° N 17:51:35 46° ENE 17:52:57 34° ESE
ARGOS 4.0 17:47:58 10° S 17:53:13 51° W 17:58:30 10° NNW
STARLINK-1201 3.2 17:50:19 10° WSW 17:53:34 66° NNW 17:54:56 31° NE
STARLINK-1112 3.6 17:50:10 10° WNW 17:54:20 81° NNE 17:55:48 39° ESE
STARLINK-1138 3.4 17:50:52 10° WSW 17:54:56 88° SSE 17:57:07 26° ENE
Cosmos 2251 Rocket 3.9 17:50:44 10° S 17:55:45 42° ESE 18:00:49 10° NE
SL-24 R/B 4.0 17:52:28 10° NNE 17:57:15 87° E 18:01:23 10° SSW
Cosmos 1953 Rocket 4.3 17:53:48 10° N 17:57:50 33° ENE 17:58:20 32° E
SL-8 R/B 3.6 17:53:15 10° W 17:58:04 86° S 18:00:03 35° E
STARLINK-1128 3.5 17:55:10 10° WNW 17:59:19 85° NNE 18:00:36 44° ESE
STARLINK-1143 3.5 17:55:38 10° WSW 17:59:42 88° NNW 18:01:42 29° ENE
STARLINK-1209 3.5 17:57:31 10° W 18:00:21 47° NNW 18:01:00 38° NNE
STARLINK-1228 3.5 17:58:21 10° W 18:01:10 47° NNW 18:01:47 38° NNE
Cosmos 2315 Rocket 4.3 17:55:03 10° SSW 18:01:20 72° W 18:07:43 10° N
Cosmos 2154 Rocket 4.4 17:58:05 10° N 18:04:13 47° ENE 18:06:44 32° SE
STARLINK-1113 3.5 18:00:08 10° WNW 18:04:18 89° NNE 18:05:23 49° ESE
Cosmos 1606 Rocket 4.1 18:06:12 37° E 18:06:12 37° E 18:10:08 10° NNE
MetOp-A 4.4 18:01:08 12° S 18:06:05 68° WSW 18:11:27 10° NNW
Cosmos 1470 3.4 18:02:50 10° SSW 18:06:38 54° WNW 18:10:29 10° N
STARLINK-1119 3.5 18:05:07 10° WNW 18:09:16 87° SSW 18:10:09 55° ESE
ERS-1 Rocket 4.0 18:08:49 28° ENE 18:09:28 29° ENE 18:13:45 10° N
STARLINK-1241 3.5 18:06:15 10° WSW 18:10:17 79° NNW 18:11:48 37° ENE
Resurs 1-3 4.0 18:07:20 20° S 18:10:18 63° WSW 18:14:41 10° NNW
IRIDIUM 104 4.4 18:06:29 10° N 18:11:44 79° W 18:15:55 16° S
Cosmos 2369 Rocket 2.1 18:07:59 10° NNW 18:13:44 79° ENE 18:16:01 38° SE
USA 245 4.3 18:12:26 40° ESE 18:13:47 52° ENE 18:19:24 10° N
STARLINK-1233 3.6 18:10:43 10° W 18:13:47 51° NNW 18:14:11 47° NNE
Cosmos 1758 4.2 18:10:10 10° SSW 18:14:09 51° WNW 18:18:11 10° N
STARLINK-1212 3.5 18:11:10 10° W 18:14:14 50° NNW 18:14:35 47° N
STARLINK-1114 3.5 18:10:07 10° WNW 18:14:16 83° SSW 18:14:57 61° SE
STARLINK-1105 3.6 18:11:37 10° W 18:14:41 50° NNW 18:15:03 47° N
STARLINK-1239 3.6 18:10:51 10° WSW 18:14:52 76° NNW 18:16:12 40° NE
STARLINK-1206 3.5 18:12:07 10° W 18:15:10 50° NNW 18:15:27 48° N
ISS -3.8 18:11:55 10° WNW 18:15:13 83° NNW 18:15:13 83° NNW
STARLINK-1247 3.6 18:12:34 10° W 18:15:36 50° NNW 18:15:53 48° N
STARLINK-1227 3.6 18:12:58 10° W 18:16:02 50° NNW 18:16:20 48° N
STARLINK-1218 3.6 18:13:28 10° W 18:16:31 49° NNW 18:16:45 48° N
SPOT 5 4.0 18:16:52 24° ENE 18:16:52 24° ENE 18:20:07 10° N
STARLINK-1226 3.6 18:13:56 10° W 18:16:59 49° NNW 18:17:13 48° N
Cosmos 2263 4.2 18:11:39 10° NNW 18:17:16 64° ENE 18:19:01 42° ESE
STARLINK-1254 3.6 18:14:19 10° W 18:17:23 49° NNW 18:17:38 48° N
Resurs 01 Rocket 1.7 18:15:31 33° S 18:17:28 75° WSW 18:21:54 10° NNW
STARLINK-1215 3.6 18:14:50 10° W 18:17:52 49° NNW 18:18:03 48° N
STARLINK-1231 3.6 18:15:16 10° W 18:18:19 48° NNW 18:18:29 48° N
STARLINK-1130 (DARKSAT) 3.5 18:15:04 10° WNW 18:19:13 78° SSW 18:19:43 66° SSE
STARLINK-1232 3.6 18:16:11 10° W 18:19:13 48° NNW 18:19:21 48° N
STARLINK-1240 3.7 18:15:27 10° WSW 18:19:28 72° NNW 18:20:38 44° NE
STARLINK-1217 3.6 18:16:38 10° W 18:19:40 48° NNW 18:19:47 48° N
STARLINK-1208 3.7 18:17:04 10° W 18:20:07 48° NNW 18:20:15 48° N
STARLINK-1229 3.7 18:17:32 10° W 18:20:35 48° NNW 18:20:38 47° N
STARLINK-1271 3.7 18:18:01 10° W 18:21:03 47° NNW 18:21:06 47° N
STARLINK-1270 3.7 18:18:27 10° W 18:21:30 47° NNW 18:21:32 47° NNW
STARLINK-1154 3.7 18:18:54 10° W 18:21:56 47° NNW 18:21:57 47° NNW
STARLINK-1197 3.7 18:19:48 10° W 18:22:49 47° NNW 18:22:49 47° NNW
STARLINK-1189 3.8 18:20:16 10° W 18:23:15 46° NNW 18:23:15 46° NNW
STARLINK-1216 3.7 18:20:05 10° WSW 18:24:06 69° NNW 18:25:04 48° NE
STARLINK-1187 3.8 18:21:08 10° W 18:24:10 44° NNW 18:24:10 44° NNW
STARLINK-1188 3.8 18:21:10 10° W 18:24:07 46° NNW 18:24:07 46° NNW
STARLINK-1084 3.5 18:20:03 10° WNW 18:24:12 74° SSW 18:24:30 69° S
STARLINK-1198 3.8 18:21:26 10° W 18:24:21 46° NNW 18:24:21 46° NNW
Nadezhda 1 Rocket 4.1 18:21:44 32° SSE 18:24:36 58° E 18:30:51 10° NNE
STARLINK-1235 3.9 18:21:52 10° W 18:24:54 42° N 18:24:54 42° N
STARLINK-1199 3.8 18:23:06 10° W 18:26:02 45° NNW 18:26:02 45° NNW
STARLINK-1191 3.9 18:23:34 10° W 18:26:29 45° NNW 18:26:29 45° NNW
STARLINK-1210 3.9 18:24:01 10° W 18:26:54 45° NNW 18:26:54 45° NNW
STARLINK-1221 3.9 18:24:29 10° W 18:27:22 45° NNW 18:27:22 45° NNW
STARLINK-1219 3.9 18:24:56 10° W 18:27:47 44° NNW 18:27:47 44° NNW
Landsat 7 3.9 18:27:41 52° E 18:28:05 54° ENE 18:32:44 10° N
STARLINK-1222 3.9 18:25:23 10° W 18:28:12 44° NNW 18:28:12 44° NNW
STARLINK-1237 3.8 18:24:45 10° WSW 18:28:45 66° NNW 18:29:32 52° NE
STARLINK-1211 4.0 18:25:50 10° W 18:28:38 44° NNW 18:28:38 44° NNW
STARLINK-1098 3.6 18:25:02 10° WNW 18:29:09 69° SSW 18:29:16 69° SSW
STARLINK-1214 4.0 18:26:17 10° W 18:29:05 43° NNW 18:29:05 43° NNW
STARLINK-1245 4.0 18:26:48 10° W 18:29:30 42° NNW 18:29:30 42° NNW
STARLINK-1238 4.0 18:27:13 10° W 18:29:57 43° NNW 18:29:57 43° NNW
STARLINK-1205 4.1 18:28:09 10° W 18:30:48 41° NW 18:30:48 41° NW
STARLINK-1204 4.1 18:28:35 10° W 18:31:13 41° NW 18:31:13 41° NW
Cosmos 1726 2.1 18:32:03 78° NNW 18:32:03 78° NNW 18:35:39 10° N
MOS 1 Rocket 3.8 18:27:49 10° N 18:32:58 71° WNW 18:38:20 10° SSW
STARLINK-1202 3.8 18:29:23 10° W 18:33:22 64° NNW 18:33:59 55° NNE
Cosmos 2228 3.1 18:34:16 59° NE 18:34:16 59° NE 18:38:02 10° NNE
STARLINK-1123 3.7 18:30:02 10° WNW 18:34:05 64° SW 18:34:05 64° SW
NOSS 3-4 (A) 4.2 18:29:12 10° NW 18:35:51 52° NE 18:38:30 36° E
NOSS 3-4 (C) 4.2 18:29:18 10° NW 18:35:57 52° NE 18:38:36 36° E
Cosmos 1943 3.3 18:37:49 52° E 18:37:49 52° E 18:43:01 10° NE
Cosmos 2074 Rocket 4.2 18:32:00 10° NNW 18:38:15 69° W 18:42:01 25° S
STARLINK-1246 3.9 18:34:21 10° W 18:38:24 62° NNW 18:38:50 57° NNE
SAR-Lupe-2 4.3 18:35:19 10° NNE 18:38:01 48° N 18:38:01 48° N
STARLINK-1097 3.9 18:35:01 10° WNW 18:38:50 59° SW 18:38:50 59° SW
Cosmos 1943 Rocket 2.7 18:33:46 10° NW 18:39:10 54° WSW 18:41:19 34° S
Cosmos 292 Rocket 4.3 18:34:34 10° NNW 18:39:15 54° WSW 18:40:35 40° SSW
STARLINK-1099 4.1 18:40:01 10° WNW 18:43:38 53° WSW 18:43:38 53° WSW
Cosmos 2058 Rocket 4.2 18:46:55 33° NE 18:46:55 33° NE 18:49:42 10° NNE
NOSS 3-3 (A) 3.8 18:40:16 10° SSW 18:46:03 66° SE 18:52:38 10° NE
NOSS 3-3 (C) 3.8 18:40:23 10° SSW 18:46:10 65° SE 18:52:43 10° NE
STARLINK-1224 4.0 18:43:23 10° W 18:47:22 57° NNW 18:47:24 57° NNW
STARLINK-1104 4.3 18:45:01 10° WNW 18:48:25 47° WSW 18:48:25 47° WSW
Meteor 2-10 4.4 18:47:40 19° SSW 18:51:30 66° WNW 18:57:03 10° N
Cosmos 1328 4.2 18:47:37 10° NNW 18:51:10 62° NW 18:51:10 62° NW
SPOT 1/Viking Rocket 3.4 18:51:28 73° ESE 18:51:51 77° ENE 18:57:05 10° NNW
STARLINK-1225 4.1 18:48:06 10° W 18:51:55 55° NNW 18:51:55 55° NNW
Cosmos 1610 Rocket 4.5 18:46:02 10° N 18:52:18 81° W 18:54:19 45° S
Spot 2 Rocket 3.7 18:52:55 55° SSW 18:53:55 69° WSW 18:59:03 10° NNW
STARLINK-1203 4.3 18:50:10 10° W 18:53:42 51° NNW 18:53:42 51° NNW
SL-16 R/B 3.7 18:49:07 10° WSW 18:54:18 35° NW 18:59:30 10° NNE
Cosmos 1953 4.0 18:53:53 18° SW 18:56:14 32° WNW 18:59:51 10° N
STARLINK-1230 4.3 18:52:46 10° W 18:56:22 52° NW 18:56:22 52° NW
STARLINK-1243 4.4 18:57:29 10° W 19:00:54 48° NW 19:00:54 48° NW
IGS 5A 4.1 19:05:47 55° NW 19:05:47 55° NW 19:09:11 10° NNW
Cosmos 2341 Rocket 3.9 19:01:55 10° N 19:08:18 77° E 19:08:56 70° SE
ATLAS 2AS CENTAUR R/B 2.8 19:01:06 10° NW 19:08:50 75° NE 19:10:15 59° ESE
Terra 2.5 19:10:44 44° NNE 19:10:44 44° NNE 19:14:21 10° N
USA 234 3.6 19:04:09 10° NE 19:10:36 65° NNW 19:17:04 10° WSW
CARTOSAT-1 4.4 19:13:45 46° N 19:13:45 46° N 19:16:51 10° NNW
Cosmos 1603 3.9 19:12:01 23° SW 19:15:36 69° WNW 19:21:14 10° NNE
Cosmos 1726 Rocket 4.4 19:18:06 49° NW 19:18:06 49° NW 19:21:58 10° N
CZ-2C R/B 4.4 19:21:29 10° N 19:25:54 29° WNW 19:30:17 10° WSW
Aureole 1 Rocket 4.2 19:24:44 64° S 19:25:57 78° ESE 19:32:35 10° NNE
APEX 4.3 19:19:37 10° NNW 19:26:39 82° ENE 19:26:44 82° ENE
COSMOS 2455 3.2 19:22:13 10° NNW 19:28:01 54° NE 19:28:01 54° NE
Cosmos 2218 Rocket 4.0 19:30:56 10° N 19:36:38 72° NNE 19:36:38 72° NNE
Cosmos 1656 Rocket 4.3 19:36:07 10° NW 19:41:14 47° W 19:41:14 47° W
Cosmos 2181 Rocket 4.0 19:48:22 74° N 19:48:22 74° N 19:54:00 10° N
ERS-1 Rocket 4.0 19:48:48 42° WNW 19:48:48 42° WNW 19:52:55 10° NNW
ATLAS CENTAUR R/B 4.3 19:51:57 10° N 19:52:58 11° NNE 19:53:05 11° NNE
SPOT 5 4.3 19:56:05 31° NW 19:56:05 31° NW 19:58:42 10° NNW
Cosmos 2369 Rocket 4.2 19:53:14 10° WNW 19:57:04 19° W 19:57:50 18° WSW
CZ-4C R/B 4.2 20:12:36 10° NW 20:18:23 31° NNE 20:21:24 23° ENE
NOSS 3-4 (A) 4.4 20:20:10 10° NW 20:25:57 48° W 20:25:57 48° W
NOSS 3-4 (C) 4.4 20:20:16 10° NW 20:26:03 48° W 20:26:03 48° W
Mayak 1.5 20:29:25 10° N 20:30:20 16° N 20:30:20 16° N
Cosmos 1697 Rocket 4.1 20:40:39 10° NNW 20:44:20 34° N 20:44:20 34° N
Terra 4.2 20:49:36 17° WNW 20:49:36 17° WNW 20:51:20 10° NW
USA 234 4.2 20:46:59 10° ENE 20:53:06 44° N 20:59:13 10° WNW
ATLAS 2AS CENTAUR R/B 4.1 20:52:51 10° NW 20:57:41 28° W 20:57:41 28° W
Cosmos 1980 Rocket 3.8 21:05:43 10° NNW 21:09:09 31° NNE 21:09:09 31° NNE
Cosmos 2082 Rocket 4.4 21:33:29 18° NE 21:33:29 18° NE 21:35:01 10° NE
SL-16 R/B 4.4 21:36:32 21° ENE 21:37:16 21° NE 21:41:47 10° N
ATLAS 5 CENTAUR R/B 4.2 21:57:41 19° NNE 21:57:41 19° NNE 21:59:34 10° NNE
Cosmos 1833 Rocket 4.3 22:03:30 30° NNE 22:03:30 30° NNE 22:06:14 10° NNE
CZ-4C R/B 3.3 22:01:02 10° NW 22:06:33 58° NNW 22:06:33 58° NNW
CZ-2D R/B 4.4 22:10:49 10° NE 22:12:56 17° ENE 22:12:56 17° ENE
Cosmos 2344 4.2 22:09:21 10° NW 22:18:51 84° SW 22:20:04 75° SSE
Resurs 1-4 Rocket 4.4 22:15:48 10° NE 22:17:48 17° ENE 22:17:48 17° ENE
SL-16 R/B 3.6 22:26:05 10° NNW 22:29:37 34° N 22:29:37 34° N
USA 234 3.9 22:29:10 10° E 22:35:28 52° NNE 22:41:46 10° WNW
Cosmos 2322 Rocket 3.5 22:41:05 10° NNW 22:44:37 36° N 22:44:37 36° N
Cosmos 2360 Rocket 3.6 22:42:43 10° NNW 22:47:47 33° NE 22:47:51 33° NE
Cosmos 1980 Rocket 4.4 22:49:46 10° NW 22:50:54 16° NW 22:50:54 16° NW
Cosmos 2082 Rocket 3.4 23:15:19 36° NNW 23:15:19 36° NNW 23:19:17 10° NNE
SL-16 R/B 3.0 23:21:37 56° NNW 23:21:37 56° NNW 23:26:26 10° NNW
Cosmos 1607 4.2 23:31:23 62° N 23:31:23 62° N 23:36:43 10° NE
NPP 4.4 23:25:41 10° NNE 23:29:46 50° NE 23:29:46 50° NE
ATLAS 5 CENTAUR R/B 4.3 23:39:11 13° NW 23:41:25 16° N 23:44:44 10° NE
USA 267 3.4 23:36:01 10° ENE 23:42:05 61° ESE 23:42:05 61° ESE
Cosmos 1833 Rocket 4.5 23:45:10 21° NW 23:45:18 21° NW 23:49:32 10° N
CZ-4B R/B 4.4 23:40:24 10° NNE 23:43:37 42° NNE 23:43:37 42° NNE
Cosmos 2219 Rocket 3.6 23:47:15 10° NNW 23:52:26 36° NE 23:57:34 10° ESE
